This is the latest recevied weather packets stored in our database for station/object K0APR. If no packets are shown the sender has not sent any weather packets the latest 10 day(s).
| Time | Temp. | Humidity | Pressure | Rain* | Wind** | Luminosity | Snow |
|---|---|---|---|---|---|---|---|
| 1777333916 | 6.67° C | 91% | 1006.4 hPa | 0 mm | - | 28 W/m² | - |
| 1777333614 | 6.67° C | 92% | 1006.4 hPa | 0 mm | - | 24 W/m² | - |
| 1777333310 | 6.67° C | 92% | 1006 hPa | 0 mm | - | 42 W/m² | - |
| 1777333009 | 6.67° C | 92% | 1006 hPa | 0 mm | - | 31 W/m² | - |
| 1777332707 | 6.67° C | 92% | 1005.6 hPa | 0 mm | - | 25 W/m² | - |
| 1777332402 | 6.67° C | 92% | 1006 hPa | 0 mm | - | 33 W/m² | - |
| 1777332099 | 6.67° C | 92% | 1005.6 hPa | 0 mm | - | 32 W/m² | - |
| 1777331797 | 6.67° C | 92% | 1005.6 hPa | 0 mm | - | 33 W/m² | - |
| 1777331493 | 6.67° C | 91% | 1005.2 hPa | 0 mm | - | 26 W/m² | - |
| 1777331192 | 6.67° C | 91% | 1005.6 hPa | 0 mm | - | 42 W/m² | - |
| 1777330889 | 6.67° C | 92% | 1005.2 hPa | 0 mm | - | 39 W/m² | - |
| 1777330585 | 6.67° C | 92% | 1004.9 hPa | 0 mm | - | 43 W/m² | - |
| 1777330282 | 6.67° C | 92% | 1005.2 hPa | 0 mm | - | 31 W/m² | - |
| 1777329980 | 6.67° C | 93% | 1004.9 hPa | 0 mm | - | 37 W/m² | - |
| 1777329680 | 6.67° C | 94% | 1004.9 hPa | 0 mm | - | 86 W/m² | - |
| 1777329377 | 6.67° C | 94% | 1004.9 hPa | 0 mm | - | 64 W/m² | - |
| 1777329074 | 6.67° C | 93% | 1004.9 hPa | 0 mm | - | 57 W/m² | - |
| 1777328772 | 6.67° C | 93% | 1004.6 hPa | 0 mm | - | 61 W/m² | - |
| 1777328469 | 6.67° C | 95% | 1004.2 hPa | 0 mm | - | 56 W/m² | - |
| 1777328168 | 6.67° C | 95% | 1004.2 hPa | 0 mm | - | 55 W/m² | - |
| 1777327866 | 6.67° C | 95% | 1004.2 hPa | 0 mm | - | 67 W/m² | - |
| 1777327563 | 6.67° C | 96% | 1004.2 hPa | 0 mm | - | 95 W/m² | - |
| 1777327261 | 6.67° C | 96% | 1004.2 hPa | 0 mm | - | 66 W/m² | - |
| 1777326957 | 6.67° C | 96% | 1003.9 hPa | 0 mm | - | 79 W/m² | - |
| 1777326655 | 6.67° C | 96% | 1003.9 hPa | 0 mm | - | 79 W/m² | - |
* Rain latest hour (hover to see other rain measurements)
** Current wind speed in m/s (hover to see current wind gust speed)